Flag for Chile Weather past 2 weeks in Talcahuano, Chile

Now
52 °F

Fog.


Feels Like: 51 °F
Forecast: 52 / 62 °F
Wind: 3 mph from West

Location: Concepcion Airport

Current Time: Apr 27, 2015 at 6:48:57 AM

Latest Report: Apr 27, 2015 at 6:00 AM


Visibility: 1 mi

Pressure: 29.98 "Hg

Humidity: 100%

Dew point: 52 °F

Location of TalcahuanoLocation

Historic Weather in Talcahuano — Graph

°F

Talcahuano temperature yesterday

Maximum temperature yesterday: 59 °F (at 1:00 PM)
Minimum temperature yesterday: 48 °F (at 8:00 AM)
Average temperature yesterday: 55 °F

Past Weeks' High & Low Weather Summary

 TemperatureHumidityPressure
High72 °F (Apr 12, 2:00 PM)100% (Apr 13, 1:00 AM)30.27 "Hg (Apr 13, 1:00 AM)
Low43 °F (Apr 18, 5:00 AM)40% (Apr 17, 2:00 PM)29.77 "Hg (Apr 18, 5:02 PM)
Average56 °F80%30.03 "Hg
* Reported Apr 12 5:00 AM — Apr 27 5:00 AM, Talcahuano, Weather by CustomWeather, © 2015

Note: Actual official high and low records may vary slightly from our data, if they occured in-between our weather recording intervals... More about our weather records

Advertising

Talcahuano weather history for previous 24 hours

 ConditionsComfort  
Time TempWeatherWind HumidityBarometerVisibility
5:00 AM
Mon, Apr 27
54 °FCool.2 mph100%29.98 "Hg1 mi
4:00 AM52 °FCool.3 mph100%30.01 "Hg1 mi
3:00 AM52 °FCool.6 mph100%30.01 "Hg1 mi
2:00 AM54 °FFog.5 mph100%30.01 "Hg1 mi
1:00 AM52 °FFog.3 mph100%30.01 "Hg1 mi
12:00 AM55 °FFog.2 mph94%30.01 "Hg3 mi
11:00 PM
Sun, Apr 26
54 °FFog.6 mph94%30.04 "Hg4 mi
10:00 PM55 °FFog.5 mph94%30.04 "Hg4 mi
9:00 PM55 °FPartly cloudy.No wind88%30.04 "HgN/A
8:00 PM57 °FOvercast.3 mph88%30.01 "Hg4 mi
7:00 PM57 °FOvercast.5 mph88%30.01 "Hg4 mi
6:00 PM57 °FOvercast.8 mph88%30.04 "Hg4 mi
5:00 PM59 °FOvercast.7 mph82%30.04 "Hg4 mi
4:00 PM59 °FOvercast.2 mph82%30.01 "Hg5 mi
3:00 PM59 °FOvercast.2 mph82%30.04 "HgN/A
2:00 PMN/AN/AN/AN/A8 mi
1:00 PM59 °FOvercast.5 mph82%30.07 "Hg5 mi
10:00 AM54 °FFog.3 mph94%30.04 "Hg2 mi
9:00 AM52 °FFog.No wind94%30.04 "Hg2 mi
8:00 AM48 °FPartly sunny.1 mph100%30.01 "HgN/A
7:00 AM52 °FOvercast.3 mph94%29.98 "HgN/A
6:00 AM50 °FOvercast.3 mph94%29.98 "HgN/A
Weather by CustomWeather, © 2015

See weather overviewHow to use our weather pages